Location: Gleizolles
(44.4833°N, 6.7667°E)
Time: 14:56:20
(UTC+00:00)

Vanguard 1 - Pass Details

Date: 30 June 2024
Orbit: 650 x 3826 km, 34.3° (Epoch: 22 July)

Event Time Altitude Azimuth Distance (km) Brightness Sun altitude
Rises 08:17:27 0° 228° (SW) 7,148 14.2 44.3°
Reaches altitude 10° 08:23:24 10° 221° (SW) 5,647 13.8 45.4°
Maximum altitude 08:36:20 34° 165° (SSE) 2,811 13.2 47.6°
Drops below altitude 10° 08:44:05 10° 104° (ESE) 3,377 13.8 48.9°
Sets 08:46:40 0° 94° (E) 4,038 13.9 49.4°
